FLOCK 4Q 5

导读

FLOCK 4Q 5是美国Planet实验室FLOCK鸽群星座中的一颗SuperDove遥感微纳卫星,于北京时间2023年11月11日发射升空。卫星为3U立方体构型,重量约5千克,运行于近地太阳同步轨道,携带高分辨率光学成像系统,可提供3米分辨率对地观测数据,服务农业监测、自然资源管理、城市监测等应用,支撑Planet星座实现全球每日重访成像能力。

基本信息
目录编号:
58325
目录名称:
FLOCK 4Q 5
国际标识:
2023-174BX
轨道中心:
EARTH
卫星名称:
FLOCK 4Q 5
卫星全名:
--
卫星状态:
已陨落 最后检测时间 2025-04-22
发射日期:
2023-11-11 UTC
国别 :
美国 (US)
星等 :
--
轨道信息
数据来源 国际轨道数据
星历时间: 2025-04-17T17:34:33+0800
轨道信息已过期420天
半长轴: 6535.586km
偏心率: 0.0013374
轨道倾角: 97.386°
近地点辐角 265.229°
升交点赤经 195.917°
平近点角 94.748°
近地点: 148.71km
远地点: 166.192km
周期: 87.637分钟
每日圈数: 16.431453
详细信息
使用方式:
暂无